Location: Cactus School
(34.5700°N, 118.0931°W)
Time: 23:51:24
(UTC-07:00)

Transit 4A - Pass Details

Date: 20 April 2024
Orbit: 871 x 971 km, 66.8° (Epoch: 18 May)

Event Time Altitude Azimuth Distance (km) Brightness Sun altitude
Rises 22:12:48 0° 338° (NNW) 3,464 11.8 -30.2°
Reaches altitude 10° 22:15:21 10° 343° (NNW) 2,526 10.9 -30.5°
Enters shadow 22:19:50 46° 21° (NNE) 1,169 8.5 -31.2°
Maximum altitude 22:21:03 54° 60° (ENE) 1,065 - -31.4°
Drops below altitude 10° 22:26:48 10° 137° (SE) 2,552 - -32.2°
Sets 22:29:22 0° 142° (SE) 3,503 - -32.5°
